User: anonymous   Login
Location: 相模原市立博物館
(35.5593°N, 139.3931°E)
Time: 14:57:18
(UTC+09:00)
Language:

MOZHAYETS 4 - Orbit

View from above orbital plane
View from above orbital plane
View from above satellite
View from above satellite

Ground track
Ground track

The orbit data is extracted from the following two-line orbital elements,

1 27939U 03042A   22024.77613177  .00000358  00000-0  72491-4 0  9991
2 27939  98.1682 165.7583 0011689 304.4602  55.5506 14.67112340979971
Epoch (UTC): 24 January 2022 18:37:37
Eccentricity: 0.0011689
inclination: 98.1682°
perigee height: 662 km
apogee height: 678 km
right ascension of ascending node: 165.7583°
argument of perigee: 304.4602°
revolutions per day: 14.67112340
mean anomaly at epoch: 55.5506°
orbit number at epoch: 97997

The dashed part of the orbit path shows where the satellite is in the earth's shadow,  

DLR